loading
|
Showing default

COSMOS 192, 3047

Orbit data source: Space-Track

COSMOS 192, 3047 is a payload satellite owned by OKB-10 (CIS) in LEO that was launched on Thu, 23 Nov 1967 UTC via a KOSMOS 11K65M launch vehicle from the Plesetsk Missile And Space Complex (PKMTR). Payloads include a variety of satellites, spacecraft, and rockets equipped with specific instruments for various scientific and technological missions. These include communications satellites like Starlink; space stations such as the ISS; scientific satellites like the Hubble; Earth observation satellites from companies like Planet Labs, Umbra, and HawkEye 360; GPS; miniature CubeSats for education and research; and military/defense satellites.

Loading next visibility...
Next conjunction unknown
Loading greatness...
COSMOS 192 details
Identifier
3047, 1967-116A
Orbit
LEO
Last TLE update1 day ago
Origin
Flag of CISOKB-10 (CIS)
ManufacturerOKB-10
MissionDefense Navigation
Bus & MotorKAUR-1 11F617, Unknown motor
Mass775 kg wet, 775 kg dry
Launch date (UTC)
1967-11-23 (57 years ago)
Launch vehicle
KOSMOS 11K65M
Launch site
Plesetsk Missile And Space Complex (PKMTR)
Object type
Payload
Rocket body
Debris
Shape & HBRCyl + 1 Rod, 17 m
Radar Cross Section9.978 m², Large (>1 m²)

Expand to show TLE details & history

TLE from 1 day ago
0 COSMOS 192
1 03047U 67116A   24285.76566998  .00002404  00000-0  54296-3 0  9991
2 03047  74.0104 102.7804 0007281  57.6077 302.5791 14.56817989  9277
Epoch: 2024-10-11T18:22Z
Definitive object data (Epoch: 2024-10-11T18:22:33.886Z)
Latitude0.00005°
Longitude166.30806°
Altitude703.328 km
Speed7.506 km/s
True Right ascension06h 51m 07s
True Declination0° 00' 00"
Sunlit
Object was in daylight at TLE epoch
Predictive object data (real-time)
Latitude-71.5825°
Longitude105.51844°
Altitude733.331 km
Speed7.486 km/s
Apparent Right ascension01h 41m 00s
Apparent Declination-56° 59' 32"
Sunlit
Object is in daylight
Predictive observer data (real-time)
Local Sidereal Time13:10:33
Azimuth193.669° SSW
Elevation-72.219°
Doppler factor1
Orbital elements
Apogee706.225 km
Perigee695.916 km
Semi-major axis7,079.207 km
Eccentricity0.0007281
Inclination74.0104°
RAAN102.7804°
Arg. of periapsis57.6077°
True anomaly302.50876°
Mean anomaly302.5791°
Eccentric anomaly302.54393°
Mean motion3.6439 °/min
BSTAR0.00054296
Period98.8 mins
No data available
No data available

COSMOS 192 Visibility forecast

Observer location: 39.9160978°, -105.1181434

Span
Click to sort rows by Start time (UTC) header in descending order
Start Az.
Max El. time (UTC)
Max El. Az.
Max El.
End time (UTC)
End Az.
9 mins2024-10-12 22:56:41.917Z349.069° N2024-10-12 23:00:41.917Z40.753° NE40.015°2024-10-12 23:05:41.917Z148.694° SSE
4 mins2024-10-13 11:43:41.917Z117.665° SE2024-10-13 11:45:41.917Z90.202° ESE14.323°2024-10-13 11:47:41.917Z64.882° ENE
7 mins2024-10-13 13:22:41.917Z223.299° SW2024-10-13 13:25:41.917Z304.286° NW38.797°2024-10-13 13:29:41.917Z8.251° NNE